Regional Weather Roundup
Issued by NWS

Home | Current Version | Previous Version | Graphics & Text | Print | Product List | Glossary On
Versions: 1 2 3 4 5 6 7 8 9 10 11 12 13 14 15 16 17 18 19 20 21 22 23 24 25 26 27 28 29 30 31 32 33 34 35 36 37 38 39 40 41 42 43 44 45 46 47 48 49 50
000
ASUS43 KDMX 181607
RWRIA

WEATHER ROUNDUP FOR IOWA
NATIONAL WEATHER SERVICE DES MOINES IA
1000 AM CST THU DEC 18 2014

NOTE: "FAIR" INDICATES FEW OR NO CLOUDS BELOW 12,000 FEET WITH NO
SIGNIFICANT WEATHER AND/OR OBSTRUCTIONS TO VISIBILITY.

* - THESE STATIONS ARE NOT NWS STATIONS...THUS NOT UNDER NWS
QUALITY CONTROL.  THEY ALSO DO NOT REPORT WEATHER SUCH
AS PRECIPITATION OR FOG.

IAZ001>003-012>014-020>022-031>034-043>046-181700-
   NORTHWEST IOWA

CITY           SKY/WX    TMP DP  RH WIND       PRES   REMARKS
CARROLL *      CLOUDY    23  19  86 SE7       30.26S WCI  15
CHEROKEE *     CLOUDY    23  21  93 SE5       30.26S WCI  17
DENISON *      CLOUDY    25  21  86 SE6       30.24R WCI  18
LE MARS *      CLOUDY    25  21  86 SE9       30.26R WCI  15
ORANGE CITY *  MOSUNNY   23  19  86 SE5       30.23S WCI  17
SHELDON *      CLOUDY    21  19  93 SE9       30.23S WCI  11
SIOUX CITY     CLOUDY    27  21  78 SE9       30.26R WCI  18
SPENCER        CLOUDY    20  16  84 SE6       30.26R WCI  12
STORM LAKE *   CLOUDY    21  19  93 SE7       30.25S WCI  13
$$

IAZ055>058-069>071-079>083-090>094-181700-
   SOUTHWEST IOWA

CITY           SKY/WX    TMP DP  RH WIND       PRES   REMARKS
ATLANTIC *     PTSUNNY   27  23  86 E7        30.25S FOG     WCI  19
AUDUBON *      MOSUNNY   25  18  74 E7        30.26R WCI  17
CLARINDA *     MOSUNNY   27  25  93 E6        30.28S FOG     WCI  20
COUNCIL BLFS * CLOUDY    27  27 100 E6        30.24R WCI  20
CRESTON *      LGT SNOW  25  23  93 E8        30.26R WCI  16
HARLAN  *      CLOUDY    27  25  93 SE6       30.29R WCI  20
LAMONI         LGT SNOW  26  23  88 E7        30.26R FOG     WCI  18
RED OAK *      CLOUDY    27  25  93 E5        30.27R FOG     WCI  21
SHENANDOAH *   LGT SNOW  28  25  86 E7        30.28R WCI  21
$$

IAZ047>049-059>061-072>074-084-181700-
   CENTRAL IOWA

CITY           SKY/WX    TMP DP  RH WIND       PRES   REMARKS
AMES           CLOUDY    22  17  81 CALM      30.30R
ANKENY *       CLOUDY    23  19  86 CALM      30.30S
CHARITON *     LGT SNOW  23  21  93 CALM      30.28S
DES MOINES     CLOUDY    24  17  74 VRB3      30.29S
GRINNELL*      CLOUDY    21  19  93 CALM      30.29S
KNOXVILLE *    LGT SNOW  23  19  86 CALM      30.28R VSB 1
MARSHALLTOWN   CLOUDY    19  16  88 CALM      30.29R
PELLA *        LGT SNOW  23  19  86 CALM      30.31S
PERRY *        CLOUDY    25  21  86 SE5       30.28F WCI  19
$$

IAZ004>006-015-016-023>025-035-036-181700-
   NORTH CENTRAL IOWA

CITY           SKY/WX    TMP DP  RH WIND       PRES   REMARKS
ALGONA *       CLOUDY    19  18  93 SE5       30.28S WCI  13
CLARION *      CLOUDY    19  18  93 VRB5      30.28S WCI  13
ESTHERVILLE    CLOUDY    17  15  92 SE5       30.26S WCI  10
FORT DODGE *   CLOUDY    21  16  79 CALM      30.28S
MASON CITY     CLOUDY    18  15  88 CALM      30.29F
FOREST CITY *  CLOUDY    19  18  93 CALM      30.28S FOG
IOWA FALLS *     N/A     19  16  86 CALM      30.29R
$$

IAZ007>011-017>019-026>030-037>042-050>054-066-181700-
   NORTHEAST IOWA

CITY           SKY/WX    TMP DP  RH WIND       PRES   REMARKS
CEDAR RAPIDS   CLOUDY    20  17  88 E3        30.30R
CHARLES CITY * CLOUDY    18  16  93 CALM      30.30S
CLINTON *      CLOUDY    19  16  86 CALM      30.35R
DECORAH *      CLOUDY    18  14  86 CALM      30.29R
DUBUQUE        MOSUNNY   19  15  84 CALM      30.30R
MONTICELLO *   SUNNY     18  16  93 CALM      30.31S
OELWEIN *      SUNNY     19  14  79 CALM      30.30S
WATERLOO       PTSUNNY   18  15  88 NE3       30.31R
$$

IAZ064-065-067-068-078-181700-
   EAST CENTRAL IOWA

CITY           SKY/WX    TMP DP  RH WIND       PRES   REMARKS
DAVENPORT      CLOUDY    22  16  78 CALM      30.32R
IOWA CITY      CLOUDY    22  17  81 CALM      30.33R
MT. PLEASANT * CLOUDY    23  19  86 CALM      30.31F
MUSCATINE *    SUNNY     25  18  74 CALM      30.33S
QUAD CITIES    CLOUDY    24  18  77 CALM      30.32R
$$

IAZ062-063-075>077-085>089-095>099-181700-
   SOUTHEAST IOWA

CITY           SKY/WX    TMP DP  RH WIND       PRES   REMARKS
BURLINGTON     MIX PCPN  25  20  81 CALM      30.30F
FAIRFIELD *    LGT SNOW  23  19  86 CALM      30.30S VSB 1
FORT MADISON * LGT SNOW  27  23  86 CALM      30.31S
KEOKUK *       LGT SNOW  25  23  93 E5        30.30S WCI  19
OSKALOOSA *    LGT SNOW  23  19  86 CALM      30.30S
CENTERVILLE *  FLURRIES  25  23  93 E3        30.29S
OTTUMWA        LGT SNOW  23  19  85 E3        30.28F VSB 1
WASHINGTON *   CLOUDY    25  23  93 CALM      30.31S
$$

ABBREVIATIONS USED IN REMARKS
   TC - TEMPERATURES IN CELSIUS
  WCI - WIND CHILL INDEX
   HX - HEAT INDEX
  VSB - VISIBILITY
$$



USA.gov is the U.S. government's official web portal to all federal, state and local government web resources and services.